Location: Unspecified
(0.0000°N, 0.0000°E)
Time: 23:43:17
(UTC+00:00)

S-56A Canister/Altair - All Passes

Search period start: 02 September 2014 00:00
Search period end: 12 September 2014 00:00
Orbit: 633 x 2503 km, 38.9° (Epoch: 02 September)

Date Brightness Start Highest point End Pass type
(mag) Time Alt. Az. Time Alt. Az. Time Alt. Az.
02 Sep - 08:26:48 10° SW 08:31:39 76° NW 08:38:26 10° NE daylight
02 Sep - 10:33:47 10° WNW 10:37:08 14° NNW 10:41:04 10° N daylight
02 Sep - 16:59:48 10° N 17:09:47 21° NNE 17:19:38 10° ENE daylight
02 Sep - 19:03:12 10° NW 19:18:07 60° NE 19:30:26 10° ESE visible
02 Sep - 21:10:51 10° WNW 21:24:29 49° SW 21:34:40 10° SSE visible
03 Sep - 07:54:54 10° SW 07:59:34 85° SE 08:05:48 10° NE daylight
03 Sep - 10:01:07 10° WNW 10:04:35 15° NNW 10:08:45 10° N daylight
03 Sep - 16:27:38 10° N 16:36:27 18° NNE 16:45:24 10° ENE daylight
03 Sep - 18:30:20 10° NNW 18:44:58 54° NE 18:57:41 10° ESE visible
03 Sep - 20:37:16 10° WNW 20:51:39 57° SW 21:02:38 10° SSE visible
03 Sep - 22:52:27 10° WSW 22:57:31 13° SW 23:01:58 10° SSW visible
04 Sep - 07:23:03 10° SW 07:27:32 65° SE 07:33:12 10° NE daylight
04 Sep - 09:28:34 10° WNW 09:32:08 17° NNW 09:36:28 10° N daylight
04 Sep - 15:55:45 10° N 16:03:06 15° NNE 16:10:45 10° ENE daylight
04 Sep - 17:57:34 10° NNW 18:11:46 48° NE 18:24:45 10° ESE visible
04 Sep - 20:03:49 10° WNW 20:18:43 65° SW 20:30:28 10° SE visible
04 Sep - 22:17:07 10° WSW 22:24:45 17° SW 22:31:11 10° S visible
05 Sep - 06:51:14 10° SSW 06:55:31 48° SE 07:00:36 10° ENE daylight
05 Sep - 08:56:06 10° WNW 08:59:45 19° NNW 09:04:13 10° NNE daylight
05 Sep - 15:24:21 10° N 15:29:46 13° NNE 15:35:26 10° NE daylight
05 Sep - 17:24:55 10° NNW 17:38:34 43° NE 17:51:39 10° ESE daylight
05 Sep - 19:30:30 10° NW 19:45:42 73° SW 19:58:10 10° SE visible
05 Sep - 21:42:22 10° W 21:51:56 22° SW 21:59:50 10° S visible
06 Sep - 06:19:28 10° SSW 06:23:31 35° SE 06:28:01 10° ENE daylight
06 Sep - 08:23:42 10° W 08:27:27 22° NNW 08:32:01 10° NNE daylight
06 Sep - 14:54:34 10° NNE 14:56:27 10° NNE 14:58:21 10° NE daylight
06 Sep - 16:52:24 10° NNW 17:05:21 38° NE 17:18:21 10° ESE daylight
06 Sep - 18:57:20 10° NW 19:12:37 82° SW 19:25:45 10° SE visible
06 Sep - 21:07:58 10° W 21:19:04 26° SW 21:28:13 10° S visible
07 Sep - 05:47:44 10° SSW 05:51:30 26° SE 05:55:25 10° E daylight
07 Sep - 07:51:22 10° W 07:55:13 26° NW 07:59:51 10° NNE daylight
07 Sep - 16:20:01 10° NNW 16:32:08 33° NE 16:44:49 10° E daylight
07 Sep - 18:24:18 10° NW 18:39:29 90° NE 18:53:11 10° SE visible
07 Sep - 20:33:51 10° W 20:46:08 31° SW 20:56:22 10° SSE visible
08 Sep - 05:16:03 10° S 05:19:26 20° SE 05:22:46 10° E visible
08 Sep - 07:19:05 10° W 07:23:03 31° NW 07:27:43 10° NNE daylight
08 Sep - 15:47:47 10° NNW 15:58:58 29° NE 16:11:03 10° E daylight
08 Sep - 17:51:24 10° NW 18:06:19 82° NE 18:20:30 10° SE visible
08 Sep - 19:59:57 10° WNW 20:13:09 37° SW 20:24:22 10° SSE visible
09 Sep - 04:44:27 10° S 04:47:18 16° SE 04:50:01 10° ESE visible
09 Sep - 06:46:50 10° WSW 06:50:58 39° NW 06:55:37 10° NNE daylight
09 Sep - 15:15:44 10° N 15:25:49 25° NE 15:37:01 10° E daylight
09 Sep - 17:18:39 10° NW 17:33:08 74° NE 17:47:39 10° SE daylight
09 Sep - 19:26:17 10° WNW 19:40:05 42° SW 19:52:13 10° SSE visible
09 Sep - 21:46:30 10° SW 21:47:42 10° SW 21:48:52 10° SSW visible
10 Sep - 04:13:01 10° S 04:15:06 13° SE 04:17:04 10° ESE visible
10 Sep - 06:14:36 10° WSW 06:18:55 51° NW 06:23:32 10° NE daylight
10 Sep - 14:43:53 10° N 14:52:42 21° NE 15:02:41 10° E daylight
10 Sep - 16:46:01 10° NW 16:59:58 66° NE 17:14:40 10° ESE daylight
10 Sep - 18:52:48 10° WNW 19:06:59 48° SW 19:19:55 10° SSE visible
10 Sep - 21:08:52 10° WSW 21:14:36 13° SW 21:19:52 10° S visible
11 Sep - 03:42:12 10° SSE 03:42:50 10° SSE 03:43:26 10° SE visible
11 Sep - 05:42:23 10° SW 05:46:55 70° NW 05:51:27 10° NE daylight
11 Sep - 14:12:18 10° N 14:19:38 17° NE 14:27:57 10° ENE daylight
11 Sep - 16:13:31 10° NW 16:26:49 59° NE 16:41:30 10° ESE daylight
11 Sep - 18:19:31 10° WNW 18:33:50 55° SW 18:47:30 10° SSE visible
11 Sep - 20:33:27 10° WSW 20:41:29 17° SW 20:48:46 10° S visible
